Weather History for Chillicothe, MO

Change the Weather History Date:

Monday, March 11, 2013

  Actual Average (KIRK) Record (KIRK)
Temperature  
Mean Temperature 31 °F 39 °F  
Max Temperature 35 °F 49 °F 79 °F (1972)
Min Temperature 28 °F 29 °F -6 °F (1948)
Degree Days  
Heating Degree Days 34 26  
Month to date heating degree days 313  
Since 1 July heating degree days 4846  
Cooling Degree Days 0 0  
Month to date cooling degree days 0  
Year to date cooling degree days 0  
Moisture  
Dew Point 23 °F    
Average Humidity 71    
Maximum Humidity 79    
Minimum Humidity 61    
Precipitation  
Precipitation 0.00 in 0.08 in 2.38 in (1939)
Month to date precipitation 0.90  
Year to date precipitation 3.70  
Sea Level Pressure  
Sea Level Pressure 29.92 in    
Wind  
Wind Speed 9 mph (WNW)    
Max Wind Speed 13 mph    
Max Gust Speed 23 mph    
T = Trace of Precipitation, MM = Missing Value Source: NWS Daily Summary

Daily Weather History Graph

Daily Weather History Graph

Search for Another Location

Airport:

Trip Planner

Search our weather history database for the weather conditions in past years. The results will help you decide how hot, cold, wet, or windy it might be!

Date:

Astronomy

Mar. 11, 2013 Rise Set
Actual Time 7:31 AM CDT 7:17 PM CDT
Civil Twilight 7:04 AM CDT 7:44 PM CDT
Nautical Twilight 6:33 AM CDT 8:15 PM CDT
Astronomical Twilight 6:01 AM CDT 8:47 PM CDT
Moon 7:05 AM CDT (3/11) 7:30 PM CDT (3/11)
Length of Visible Light 12h 39m
Length of Day
11h 45m
Waning Crescent, 0% of the Moon is Illuminated
Mar 11
Waning Crescent
Mar 11
New
Mar 19
First Quarter
Mar 27
Full
Apr 2
Last Quarter

Hourly Weather History & Observations

Time (CDT) Temp. Windchill Dew Point Humidity Pressure Visibility Wind Dir Wind Speed Gust Speed Precip Events Conditions
12:52 AM 32.0 °F 24.8 °F 26.1 °F 79% 29.84 in - WNW 8.1 mph - N/A   Unknown
1:52 AM 32.0 °F 23.0 °F 26.1 °F 79% 29.84 in - WNW 11.5 mph - N/A   Unknown
2:52 AM 30.9 °F 22.2 °F 25.0 °F 79% 29.83 in - WNW 10.4 mph - N/A   Unknown
3:52 AM 30.0 °F 21.1 °F 24.1 °F 79% 29.83 in - WNW 10.4 mph - N/A   Unknown
4:52 AM 30.0 °F 21.1 °F 23.0 °F 75% 29.82 in - WNW 10.4 mph 23.0 mph N/A   Unknown
5:52 AM 30.0 °F 21.1 °F 23.0 °F 75% 29.85 in - WNW 10.4 mph 16.1 mph N/A   Unknown
6:52 AM 28.9 °F 20.4 °F 23.0 °F 78% 29.86 in - WNW 9.2 mph 18.4 mph N/A   Unknown
7:52 AM 28.9 °F 21.1 °F 21.9 °F 75% 29.88 in - WNW 8.1 mph 19.6 mph N/A   Unknown
8:52 AM 28.9 °F 19.8 °F 21.0 °F 72% 29.89 in - WNW 10.4 mph 23.0 mph N/A   Unknown
9:52 AM 28.9 °F 18.6 °F 21.9 °F 75% 29.91 in - NW 12.7 mph 18.4 mph N/A   Unknown
10:52 AM 30.0 °F 21.1 °F 21.9 °F 72% 29.92 in - West 10.4 mph - N/A   Unknown
11:52 AM 30.0 °F 21.7 °F 21.9 °F 72% 29.92 in - WNW 9.2 mph 20.7 mph N/A   Unknown
12:52 PM 30.9 °F 22.2 °F 23.0 °F 72% 29.94 in - WNW 10.4 mph 18.4 mph N/A   Unknown
1:52 PM 32.0 °F 22.5 °F 23.0 °F 69% 29.92 in - WNW 12.7 mph 20.7 mph N/A   Unknown
2:52 PM 32.0 °F 23.0 °F 24.1 °F 73% 29.93 in - West 11.5 mph 20.7 mph N/A   Unknown
3:52 PM 34.0 °F 27.2 °F 24.1 °F 67% 29.92 in - WNW 8.1 mph 18.4 mph N/A   Unknown
4:52 PM 33.1 °F 24.9 °F 21.9 °F 64% 29.94 in - WNW 10.4 mph 17.3 mph N/A   Unknown
5:52 PM 33.1 °F 24.4 °F 21.0 °F 61% 29.96 in - WNW 11.5 mph 16.1 mph N/A   Unknown
6:52 PM 33.1 °F 28.7 °F 21.0 °F 61% 29.98 in - Variable 4.6 mph - N/A   Unknown
7:52 PM 32.0 °F 28.7 °F 21.9 °F 66% 30.00 in - West 3.5 mph - N/A   Unknown
8:52 PM 32.0 °F 26.4 °F 21.9 °F 66% 30.01 in - WNW 5.8 mph - N/A   Unknown
9:52 PM 30.9 °F 25.2 °F 21.0 °F 67% 30.03 in - WNW 5.8 mph - N/A   Unknown
10:52 PM 30.0 °F 25.2 °F 21.0 °F 69% 30.02 in - WNW 4.6 mph - N/A   Unknown
11:52 PM 30.0 °F 24.1 °F 21.0 °F 69% 30.04 in - NW 5.8 mph - N/A   Unknown